Stations météo

Publicité
Le Luc, France (7675): Température de l'air & dewpoint: 11.02.2019 16:00:00 - 17.02.2019 16:00:00 (CET)Le Luc, France (7675): Température de l'air 5cm: 11.02.2019 16:00:00 - 17.02.2019 16:00:00 (CET)Le Luc, France (7675): Vitesse du vent & gusts: 11.02.2019 16:00:00 - 17.02.2019 16:00:00 (CET)Le Luc, France (7675): Direction du vent: 11.02.2019 16:00:00 - 17.02.2019 16:00:00 (CET)Le Luc, France (7675): reduced air pressure: 11.02.2019 16:00:00 - 17.02.2019 16:00:00 (CET)Le Luc, France (7675): visibility: 11.02.2019 16:00:00 - 17.02.2019 16:00:00 (CET)Le Luc, France (7675): Ensoleillement: 11.02.2019 16:00:00 - 17.02.2019 16:00:00 (CET)Le Luc, France (7675): Quantités de précipitations: 11.02.2019 16:00:00 - 17.02.2019 16:00:00 (CET)
Date & Time tt [°C] td [°C] tt 5cm [°C] ff [km/h] ff [knt] fx [km/h] fx [knt] dd ppp [hPa] vv [km] sd [min] rr [mm]
17.02.2019 16:00:00 15,5 7,3 15,9 12 7 21 12 ESE 1026,7 45 39 0,0
17.02.2019 15:00:00 17,0 7,3 20,9 16 8 21 11 ESE 1026,7 36 60 0,0
17.02.2019 14:00:00 17,5 5,7 23,6 3 2 9 5 ESE 1027,5 20 60 0,0
17.02.2019 13:00:00 16,4 3,8 21,2 2 1 5 3 SW 1028,4 33 60 0,0
17.02.2019 12:00:00 13,5 5,9 17,3 0 0 4 2 N 1029,4 20 60 0,0
17.02.2019 11:00:00 10,0 4,6 13,4 0 0 4 2 N 1030,0 20 60 0,0
17.02.2019 10:00:00 6,1 2,2 5,0 0 0 2 1 N 1030,4 19 60 0,0
17.02.2019 09:00:00 2,1 0,2 -2,1 0 0 2 1 N 1030,8 14 60 0,0
17.02.2019 08:00:00 -1,8 -2,5 -4,6 0 0 4 2 N 1030,7 11 7 0,0
17.02.2019 07:00:00 -1,8 -2,5 -4,7 0 0 0 0 N 1030,4 14 0 0,0
17.02.2019 06:00:00 -1,8 -2,6 -4,4 0 0 0 0 N 1030,1 13 0 0,0
17.02.2019 05:00:00 -0,7 -1,5 -3,9 2 1 4 2 W 1030,0 13 0 0,0
17.02.2019 04:00:00 -0,7 -1,8 -3,2 0 0 4 2 N 1030,3 12 0 0,0
17.02.2019 03:00:00 -0,5 -1,6 -2,8 0 0 0 0 N 1030,6 14 0 0,0
17.02.2019 02:00:00 0,9 -0,1 -2,0 0 0 3 2 N 1030,5 13 0 0,0
17.02.2019 01:00:00 1,2 -0,1 -1,4 0 0 3 2 N 1030,4 16 0 0,0
17.02.2019 00:00:00 1,9 0,6 -0,8 0 0 3 2 N 1030,3 18 0 0,0
16.02.2019 23:00:00 3,1 1,3 0,5 0 0 3 2 N 1030,5 19 0 0,0
16.02.2019 22:00:00 4,7 2,1 1,5 0 0 3 2 N 1030,5 25 0 0,0
16.02.2019 21:00:00 6,2 2,6 2,7 0 0 4 2 N 1030,0 32 0 0,0
16.02.2019 20:00:00 8,6 3,4 4,9 0 0 6 4 N 1029,7 26 0 0,0
16.02.2019 19:00:00 10,8 3,8 7,4 4 2 10 5 WNW 1029,7 33 0 0,0
16.02.2019 18:00:00 13,3 4,2 11,0 8 5 14 7 ENE 1029,0 39 43 0,0
16.02.2019 17:00:00 17,2 3,5 18,0 11 6 16 9 E 1028,8 31 60 0,0
16.02.2019 16:00:00 18,6 2,4 22,4 9 5 16 9 E 1029,1 20 60 0,0
16.02.2019 15:00:00 18,8 1,3 23,4 9 5 16 9 SE 1029,4 41 60 0,0
16.02.2019 14:00:00 18,4 3,4 24,1 6 3 12 7 ESE 1030,0 27 60 0,0
16.02.2019 13:00:00 17,3 3,6 22,5 0 0 5 3 N 1030,6 20 60 0,0
16.02.2019 12:00:00 14,5 5,3 18,4 0 0 4 2 N 1031,4 20 60 0,0
16.02.2019 11:00:00 10,4 5,0 14,6 0 0 4 2 N 1031,8 20 60 0,0
16.02.2019 10:00:00 6,3 3,1 6,7 0 0 4 2 N 1032,3 18 60 0,0
16.02.2019 09:00:00 2,3 1,0 -1,7 0 0 4 2 N 1032,4 16 60 0,0
16.02.2019 08:00:00 -2,0 -2,7 -4,5 0 0 2 1 N 1032,1 10 7 0,0
16.02.2019 07:00:00 -1,3 -1,9 -3,9 0 0 3 2 N 1031,6 10 0 0,0
16.02.2019 06:00:00 -1,2 -1,9 -4,0 3 2 4 2 W 1031,5 13 0 0,0
16.02.2019 05:00:00 -0,7 -1,8 -2,8 0 0 4 2 N 1031,5 11 0 0,0
16.02.2019 04:00:00 0,0 -0,9 -1,8 4 2 6 3 WNW 1031,2 11 0 0,0
16.02.2019 03:00:00 0,0 -1,1 -1,6 0 0 5 3 N 1031,2 16 0 0,0
16.02.2019 02:00:00 1,9 1,0 -0,8 0 0 9 5 N 1031,2 11 0 0,0
16.02.2019 01:00:00 2,0 1,0 -0,7 0 0 5 3 N 1031,2 19 0 0,0
16.02.2019 00:00:00 2,7 1,4 0,6 3 1 5 3 SW 1031,0 17 0 0,0
15.02.2019 23:00:00 3,8 2,2 1,4 0 0 4 2 N 1030,8 36 0 0,0
15.02.2019 22:00:00 4,9 3,2 2,0 2 1 4 2 SE 1030,1 39 0 0,0
15.02.2019 21:00:00 6,7 3,3 3,9 0 0 7 4 N 1029,4 30 0 0,0
15.02.2019 20:00:00 8,7 4,7 5,2 2 1 8 4 NW 1028,9 27 0 0,0
15.02.2019 19:00:00 12,0 5,8 8,0 3 1 7 4 ESE 1028,1 29 0 0,0
15.02.2019 18:00:00 15,9 5,2 12,9 6 3 12 6 ENE 1027,4 37 42 0,0
15.02.2019 17:00:00 21,6 2,3 22,4 0 0 8 4 N 1027,1 42 60 0,0
15.02.2019 16:00:00 21,0 2,3 26,0 5 3 10 5 SE 1027,6 46 60 0,0
15.02.2019 15:00:00 21,4 2,6 26,4 3 2 9 5 WNW 1028,0 35 60 0,0
15.02.2019 14:00:00 19,5 4,4 24,2 3 2 8 4 ENE 1029,1 42 60 0,0
15.02.2019 13:00:00 16,9 4,9 22,6 2 1 5 3 ESE 1030,0 20 60 0,0
15.02.2019 12:00:00 14,4 4,9 17,3 0 0 7 4 N 1031,4 35 60 0,0
15.02.2019 11:00:00 9,9 4,1 12,8 0 0 6 4 N 1031,8 20 60 0,0
15.02.2019 10:00:00 5,9 2,5 5,3 0 0 12 6 N 1032,3 19 60 0,0
15.02.2019 09:00:00 1,7 0,7 -1,7 0 0 3 2 N 1032,7 17 60 0,0
15.02.2019 08:00:00 -1,4 -2,1 -5,2 0 0 3 2 N 1032,9 16 5 0,0
15.02.2019 07:00:00 -2,0 -3,0 -4,5 0 0 5 3 N 1032,6 15 0 0,0
15.02.2019 06:00:00 -1,2 -1,8 -4,3 2 1 3 1 WSW 1032,4 11 0 0,0
15.02.2019 05:00:00 -1,2 -2,0 -3,4 0 0 4 2 N 1032,2 17 0 0,0
15.02.2019 04:00:00 -1,2 -2,0 -3,1 0 0 4 2 N 1032,3 20 0 0,0
15.02.2019 03:00:00 -0,5 -1,5 -2,8 0 0 3 2 N 1032,5 16 0 0,0
15.02.2019 02:00:00 0,7 -0,2 -2,3 0 0 3 1 N 1032,8 20 0 0,0
15.02.2019 01:00:00 0,9 0,0 -1,9 0 0 3 1 N 1032,8 17 0 0,0
15.02.2019 00:00:00 2,0 0,8 -0,8 2 1 5 3 ESE 1032,8 17 0 0,0
14.02.2019 23:00:00 3,7 2,5 -0,1 0 0 5 3 N 1032,7 32 0 0,0
14.02.2019 22:00:00 5,1 3,6 1,8 0 0 8 5 N 1032,3 28 0 0,0
14.02.2019 21:00:00 8,0 5,5 5,8 6 4 11 6 SW 1032,1 41 0 0,0
14.02.2019 20:00:00 10,7 6,4 8,2 9 5 13 7 W 1031,7 42 0 0,0
14.02.2019 19:00:00 11,8 5,6 9,6 7 4 17 9 W 1031,5 50 0 0,0
14.02.2019 18:00:00 13,8 5,4 12,0 9 5 21 12 WSW 1031,2 50 40 0,0
14.02.2019 17:00:00 16,9 4,9 17,8 11 6 19 10 WSW 1031,2 46 60 0,0
14.02.2019 16:00:00 19,3 0,8 24,5 5 3 13 7 SW 1031,4 39 60 0,0
14.02.2019 15:00:00 18,6 0,7 24,3 6 3 12 7 WSW 1032,0 41 60 0,0
14.02.2019 14:00:00 17,7 2,8 22,2 2 1 13 7 SW 1033,1 37 60 0,0
14.02.2019 13:00:00 15,6 2,7 20,2 2 1 11 6 W 1034,2 32 60 0,0
14.02.2019 12:00:00 12,9 4,8 16,0 0 0 5 3 N 1035,4 32 60 0,0
14.02.2019 11:00:00 8,1 3,4 10,4 2 1 8 4 SSE 1036,3 20 60 0,0
14.02.2019 10:00:00 4,3 2,0 2,4 2 1 12 7 E 1036,8 17 60 0,0
14.02.2019 09:00:00 0,5 -0,1 -3,0 0 0 9 5 N 1037,2 19 41 0,0
14.02.2019 08:00:00 -2,5 -3,2 -5,1 2 1 4 2 W 1037,3 19 4 0,0
14.02.2019 07:00:00 -2,4 -3,1 -5,1 0 0 3 2 N 1037,2 18 0 0,0
14.02.2019 06:00:00 -1,9 -2,5 -4,6 0 0 4 2 N 1037,3 11 0 0,0
14.02.2019 05:00:00 -1,0 -1,7 -3,8 0 0 4 2 N 1037,2 16 0 0,0
14.02.2019 04:00:00 -0,9 -1,5 -3,8 0 0 4 2 N 1037,1 16 0 0,0
14.02.2019 03:00:00 -0,6 -1,7 -2,1 3 1 7 4 SSE 1037,4 15 0 0,0
14.02.2019 02:00:00 -0,4 -1,1 -2,7 4 2 5 3 NW 1037,5 15 0 0,0
14.02.2019 01:00:00 0,6 -0,3 -2,3 3 1 5 3 W 1037,2 19 0 0,0
14.02.2019 00:00:00 1,3 -0,3 -1,5 0 0 3 2 N 1036,7 20 0 0,0
13.02.2019 23:00:00 1,9 0,4 -1,2 2 1 4 2 W 1036,5 20 0 0,0
13.02.2019 22:00:00 3,4 1,1 -0,2 0 0 4 2 N 1036,1 40 0 0,0
13.02.2019 21:00:00 4,5 1,5 1,4 0 0 4 2 N 1035,7 42 0 0,0
13.02.2019 20:00:00 6,6 1,9 3,0 0 0 4 2 N 1035,3 50 0 0,0
13.02.2019 19:00:00 8,1 2,3 3,8 2 1 8 4 ENE 1034,7 50 0 0,0
13.02.2019 18:00:00 11,5 2,8 9,2 6 4 17 9 E 1033,9 50 39 0,0
13.02.2019 17:00:00 14,1 3,5 14,7 8 5 23 12 E 1033,6 42 60 0,0
13.02.2019 16:00:00 14,6 5,1 17,5 16 9 25 14 ESE 1033,5 37 60 0,0
13.02.2019 15:00:00 14,7 6,3 15,9 17 9 32 17 E 1033,5 37 56 0,0
13.02.2019 14:00:00 15,0 6,8 17,3 21 11 34 19 ESE 1033,5 35 60 0,0
13.02.2019 13:00:00 14,7 5,7 17,1 23 12 41 22 ESE 1033,8 20 60 0,0
13.02.2019 12:00:00 14,6 4,0 17,0 26 14 39 21 E 1033,8 33 60 0,0
13.02.2019 11:00:00 11,6 5,7 13,2 4 2 10 5 E 1033,8 36 60 0,0
13.02.2019 10:00:00 7,7 1,7 7,3 0 0 9 5 N 1033,6 33 60 0,0
13.02.2019 09:00:00 1,9 -1,2 -1,1 0 0 4 2 N 1033,4 40 60 0,0
13.02.2019 08:00:00 -1,6 -3,2 -3,8 0 0 8 4 N 1032,6 50 2 0,0
13.02.2019 07:00:00 -1,8 -3,2 -4,0 0 0 5 3 N 1031,7 44 0 0,0
13.02.2019 06:00:00 -2,3 -3,9 -4,1 3 2 6 3 E 1031,2 50 0 0,0
13.02.2019 05:00:00 -1,5 -3,5 -3,7 0 0 6 3 N 1030,4 50 0 0,0
13.02.2019 04:00:00 -1,3 -3,0 -3,8 0 0 3 2 N 1030,1 50 0 0,0
13.02.2019 03:00:00 -0,9 -2,9 -3,2 0 0 3 2 N 1029,9 50 0 0,0
13.02.2019 02:00:00 -0,1 -2,5 -3,0 0 0 4 2 N 1029,3 49 0 0,0
13.02.2019 01:00:00 1,1 -2,1 -1,5 2 1 4 2 SSE 1028,8 50 0 0,0
13.02.2019 00:00:00 2,6 -1,8 -0,9 2 1 8 4 WNW 1028,1 50 0 0,0
12.02.2019 23:00:00 3,5 -1,7 0,8 2 1 7 4 NE 1027,2 50 0 0,0
12.02.2019 22:00:00 7,4 -1,3 4,6 6 3 14 8 W 1026,5 50 0 0,0
12.02.2019 21:00:00 9,8 -1,3 7,4 8 4 18 10 SW 1025,7 50 0 0,0
12.02.2019 20:00:00 11,4 -0,4 9,3 9 5 26 14 SW 1025,2 50 0 0,0
12.02.2019 19:00:00 13,2 -4,5 11,0 15 8 31 17 WSW 1024,7 50 0 0,0
12.02.2019 18:00:00 14,6 -5,2 12,8 13 7 26 14 W 1024,4 50 33 0,0
12.02.2019 17:00:00 15,9 -4,1 15,4 14 8 34 18 NW 1024,2 50 45 0,0
12.02.2019 16:00:00 17,6 -6,3 20,0 25 13 41 22 WNW 1024,3 46 60 0,0
12.02.2019 15:00:00 18,5 -7,8 21,3 22 12 33 18 W 1024,4 41 60 0,0
12.02.2019 14:00:00 17,8 -4,8 20,2 15 8 26 14 W 1025,0 42 60 0,0
12.02.2019 13:00:00 15,7 -2,3 19,1 16 8 25 13 W 1025,9 38 60 0,0
12.02.2019 12:00:00 13,0 -2,9 17,5 12 6 20 11 WSW 1027,3 20 60 0,0
12.02.2019 11:00:00 10,8 -3,3 14,8 10 5 19 10 WSW 1028,2 20 60 0,0
12.02.2019 10:00:00 9,1 -3,8 11,1 10 5 19 10 WSW 1028,2 20 60 0,0
12.02.2019 09:00:00 6,4 -3,6 3,9 6 4 14 8 WSW 1028,3 20 56 0,0
12.02.2019 08:00:00 4,4 -3,6 1,2 9 5 22 12 WSW 1027,7 20 1 0,0
12.02.2019 07:00:00 4,9 -3,2 2,7 11 6 23 12 SW 1027,1 20 0 0,0
12.02.2019 06:00:00 4,9 -2,7 2,7 8 4 24 13 SSW 1026,7 20 0 0,0
12.02.2019 05:00:00 6,5 -2,9 3,1 15 8 30 16 WSW 1026,1 20 0 0,0
12.02.2019 04:00:00 5,6 -2,5 3,5 8 5 24 13 SW 1026,0 20 0 0,0
12.02.2019 03:00:00 5,8 -3,1 3,2 9 5 19 10 SSW 1025,5 20 0 0,0
12.02.2019 02:00:00 5,9 -3,7 3,1 8 4 22 12 SSW 1025,4 20 0 0,0
12.02.2019 01:00:00 6,6 -5,4 3,3 12 6 20 11 W 1024,5 20 0 0,0
12.02.2019 00:00:00 7,2 -5,5 4,4 8 5 18 10 SSW 1023,7 20 0 0,0
11.02.2019 23:00:00 7,7 -4,7 5,0 6 3 39 21 SW 1023,1 20 0 0,0
11.02.2019 22:00:00 8,8 -4,4 7,1 22 12 51 28 NW 1022,5 20 0 0,0
11.02.2019 21:00:00 8,7 -3,8 7,7 38 20 68 37 WNW 1021,6 20 0 0,0
11.02.2019 20:00:00 9,1 -3,8 8,1 34 19 74 40 NW 1021,4 20 0 0,0
11.02.2019 19:00:00 9,8 -4,6 8,5 35 19 68 37 NW 1020,8 20 0 0,0
11.02.2019 18:00:00 10,5 -4,3 9,4 41 22 76 41 NW 1019,7 20 36 0,0
11.02.2019 17:00:00 11,7 -3,7 11,8 32 17 67 36 WNW 1019,8 20 60 0,0
11.02.2019 16:00:00 12,4 -3,9 14,2 48 26 76 41 WNW 1018,3 20 60 0,0

tt = Température de l'air
td = dewpoint
tt 5cm = Température de l'air 5cm
ff = Vitesse du vent
fx = gusts
dd = Direction du vent
ppp = reduced air pressure
vv = visibility
sd = Ensoleillement
rr = Quantités de précipitations

stations d'obs. à proximité